IU2GFL-13 Weather Reports


Display with metric or nautical units.
time (UTC)temp
F
wind
direction
speed
MPH
gust
MPH
rain 1hr
in
rain 24hr
in
rain mn
in
humidity
%
barometer
mb
20260507051411 57 0.0 0.0 0.00 0.00 0.00 73 989.9
20260507045406 56 0.0 0.0 0.00 0.00 0.00 75 989.6
20260507043401 56 0.0 0.0 0.00 0.00 0.00 78 989.4
20260507041357 55 0.0 0.0 0.00 0.00 0.00 79 989.2
20260507035351 55 0.0 0.0 0.00 0.00 0.00 81 989.2
20260507033347 54 0.0 0.0 0.00 0.00 0.00 82 989.1
20260507025338 54 0.0 0.0 0.00 0.00 0.00 81 989.3
20260507021328 54 0.0 0.0 0.00 0.00 0.00 80 989.2
20260507015324 54 0.0 0.0 0.00 0.00 0.00 79 989.2
20260507013319 55 0.0 0.0 0.00 0.00 0.00 78 988.9
20260507011315 55 0.0 0.0 0.00 0.00 0.00 76 988.8
20260507005310 55 0.0 0.0 0.00 0.00 0.00 78 988.8
20260507003305 55 0.0 0.0 0.00 0.00 0.00 77 988.8
20260507001301 55 0.0 0.0 0.00 0.00 0.00 76 988.8
20260506235256 56 0.0 0.0 0.00 0.00 0.00 75 988.8
20260506233252 55 0.0 0.0 0.00 0.00 0.00 75 988.7
20260506231247 56 0.0 0.0 0.00 0.00 0.00 75 988.6
20260506225243 55 0.0 0.0 0.00 0.00 0.00 75 988.5
20260506223238 55 0.0 0.0 0.00 0.00 0.00 74 988.6
20260506221233 55 0.0 0.0 0.00 0.00 0.00 76 988.6
20260506215229 55 0.0 0.0 0.00 0.00 0.00 75 988.4
20260506213224 56 0.0 0.0 0.00 0.00 0.00 74 988.3
20260506211220 56 0.0 0.0 0.00 0.00 0.00 74 988.5
20260506205215 56 0.0 0.0 0.00 0.00 0.00 75 988.3
20260506203211 56 0.0 0.0 0.00 0.00 0.00 75 988.2
20260506201206 55 0.0 0.0 0.00 0.00 0.00 79 988.2
20260506195202 55 0.0 0.0 0.00 0.00 0.00 80 988.1
20260506193157 56 0.0 0.0 0.00 0.00 0.00 78 988.0
20260506191153 56 0.0 0.0 0.00 0.00 0.00 77 987.4
20260506185149 56 0.0 0.0 0.00 0.00 0.00 78 987.2
20260506183145 56 0.0 0.0 0.00 0.00 0.00 80 986.9
20260506181140 55 0.0 0.0 0.00 0.00 0.00 82 986.6
20260506175136 56 0.0 0.0 0.00 0.00 0.00 81 986.1
20260506173132 55 0.0 0.0 0.00 0.00 0.00 83 986.1
20260506172825 55 0.0 0.0 0.00 0.00 0.00 83 986.1
20260506170821 54 0.0 0.0 0.00 0.00 0.00 84 985.8
20260506164816 54 0.0 0.0 0.00 0.00 0.00 82 985.9
20260506162812 55 0.0 0.0 0.00 0.00 0.00 77 985.2
20260506160807 58 0.0 0.0 0.00 0.00 0.00 71 985.6
20260506154803 65 0.0 0.0 0.00 0.00 0.00 71 984.6
20260506152758 66 0.0 0.0 0.00 0.00 0.00 69 984.2
20260506150753 68 0.0 0.0 0.00 0.00 0.00 66 984.3
20260506144749 69 0.0 0.0 0.00 0.00 0.00 66 984.7
20260506142744 65 0.0 0.0 0.00 0.00 0.00 71 984.8
20260506140739 68 0.0 0.0 0.00 0.00 0.00 64 985.3
20260506134734 71 0.0 0.0 0.00 0.00 0.00 61 985.5
20260506132724 68 0.0 0.0 0.00 0.00 0.00 65 986.0
20260506130719 67 0.0 0.0 0.00 0.00 0.00 66 986.1
20260506122710 69 0.0 0.0 0.00 0.00 0.00 65 986.2
20260506120705 66 0.0 0.0 0.00 0.00 0.00 68 986.3
20260506114701 67 0.0 0.0 0.00 0.00 0.00 67 986.5
20260506112656 66 0.0 0.0 0.00 0.00 0.00 68 986.4
20260506110652 69 0.0 0.0 0.00 0.00 0.00 68 986.4
20260506104647 66 0.0 0.0 0.00 0.00 0.00 71 986.7
20260506102642 64 0.0 0.0 0.00 0.00 0.00 74 986.9
20260506100638 62 0.0 0.0 0.00 0.00 0.00 77 986.9
20260506094633 63 0.0 0.0 0.00 0.00 0.00 77 986.8
20260506090624 59 0.0 0.0 0.00 0.00 0.00 86 986.9
20260506084620 58 0.0 0.0 0.00 0.00 0.00 87 986.4
20260506080611 59 0.0 0.0 0.00 0.00 0.00 85 986.4
20260506072601 60 0.0 0.0 0.00 0.00 0.00 85 986.6
20260506070557 59 0.0 0.0 0.00 0.00 0.00 88 987.0
20260506060543 58 0.0 0.0 0.00 0.00 0.00 90 986.9